Location: Bacharowice
(49.9333°N, 19.5833°E)
Time: 13:03:04
(UTC+00:00)

Cosmos 1437 - Pass Details

Date: 11 May 2021
Orbit: 337 x 342 km, 81.2° (Epoch: 22 June)

Event Time Altitude Azimuth Distance (km) Brightness Sun altitude
Exits shadow 19:29:13 10° 177° (S) 1,338 4.9 -10.3°
Reaches altitude 10° 19:29:14 10° 177° (S) 1,330 4.9 -10.3°
Maximum altitude 19:32:04 54° 99° (E) 443 2.6 -10.6°
Drops below altitude 10° 19:34:55 10° 20° (NNE) 1,343 5.7 -10.9°
Sets 19:36:54 0° 16° (NNE) 2,194 6.8 -11.1°
